| time (UTC) | temp F | wind direction | speed knots | gust knots | rain 1hr in | rain 24hr in | rain mn in | humidity % | barometer mb |
| 20260506152137 | 72 | 130 | 15.6 | 25.2 | 0.00 | 0.00 | 0.00 | 37 | |
| 20260506142104 | 73 | 130 | 15.6 | 0.0 | 0.00 | 0.00 | 0.00 | 38 | |
| 20260506132105 | 72 | 130 | 15.6 | 26.9 | 0.00 | 0.00 | 0.00 | 43 | |
| 20260506122104 | 70 | 170 | 12.2 | 0.0 | 0.00 | 0.00 | 0.00 | 43 | |
| 20260506112049 | 72 | 140 | 10.4 | 0.0 | 0.00 | 0.00 | 0.00 | 40 | |
| 20260506102251 | 72 | 190 | 10.4 | 0.0 | 0.00 | 0.00 | 0.00 | 37 | |
| 20260506092035 | 66 | 210 | 6.1 | 0.0 | 0.00 | 0.00 | 0.00 | 48 | |
| 20260506082049 | 64 | 200 | 7.8 | 0.0 | 0.00 | 0.00 | 0.00 | 55 | |
| 20260506072051 | 63 | 230 | 6.1 | 0.0 | 0.00 | 0.00 | 0.00 | 63 | |
| 20260506062124 | 59 | 240 | 6.1 | 0.0 | 0.00 | 0.00 | 0.00 | 72 | |
| 20260506042305 | 52 | 220 | 6.1 | 0.0 | 0.00 | 0.00 | 0.00 | 87 | |
| 20260506032051 | 55 | 280 | 4.3 | 0.0 | 0.00 | 0.00 | 0.00 | 82 | |
| 20260506022049 | 55 | 270 | 6.1 | 0.0 | 0.00 | 0.00 | 0.00 | 82 | |
| 20260506012150 | 59 | 330 | 7.8 | 0.0 | 0.00 | 0.00 | 0.00 | 67 | |
| 20260506002048 | 57 | 320 | 6.1 | 0.0 | 0.00 | 0.00 | 0.00 | 67 | |
| 20260505232048 | 57 | 50 | 4.3 | 0.0 | 0.00 | 0.00 | 0.00 | 62 | |
| 20260505222048 | 59 | 90 | 7.8 | 0.0 | 0.00 | 0.00 | 0.00 | 58 | |
| 20260505212139 | 59 | 100 | 7.8 | 0.0 | 0.00 | 0.00 | 0.00 | 58 | |
| 20260505202105 | 61 | 90 | 6.1 | 0.0 | 0.00 | 0.00 | 0.00 | 55 | |
| 20260505192122 | 63 | 100 | 7.8 | 0.0 | 0.00 | 0.00 | 0.00 | 51 | |
| 20260505182105 | 68 | 120 | 13.9 | 0.0 | 0.00 | 0.00 | 0.00 | 40 | |
| 20260505172122 | 72 | 130 | 15.6 | 0.0 | 0.00 | 0.00 | 0.00 | 35 | |
| 20260505162237 | 75 | 120 | 12.2 | 0.0 | 0.00 | 0.00 | 0.00 | 29 |